Bismarck, ND

7:03 AM CDT on May 24, 2017 (GMT -0500)
Bismarck Municipal

Weather History for KBIS - January, 2014

Change the Weather History Date:

Thursday, January 2, 2014

  Actual Average Record
Temperature  
Mean Temperature -7 °F 13 °F  
Max Temperature 9 °F 23 °F 47 °F (1962)
Min Temperature -23 °F 2 °F -44 °F (1887)
Degree Days  
Heating Degree Days 72 52  
Month to date heating degree days 140 104  
Since 1 July heating degree days 3870 3604  
Cooling Degree Days 0 0  
Month to date cooling degree days 0 0  
Year to date cooling degree days 0 0  
Moisture  
Dew Point -8 °F    
Average Humidity 78    
Maximum Humidity 87    
Minimum Humidity 69    
Precipitation  
Precipitation T in 0.01 in 0.24 in (2017)
Month to date precipitation 0.03 0.03  
Year to date precipitation 0.03 0.03  
Snow  
Snow 0.50 in 0.30 in 2.80 in (1910)
Month to date snowfall 1.5 0.6  
Since 1 July snowfall 18.6 21.1  
Snow Depth 7.00 in    
Sea Level Pressure  
Sea Level Pressure 30.28 in    
Wind  
Wind Speed 8 mph (SE)    
Max Wind Speed 17 mph    
Max Gust Speed 20 mph    
Visibility 7 miles    
Events Snow    
T = Trace of Precipitation, MM = Missing Value Source: NWS Daily Summary

Daily Weather History Graph

Daily Weather History Graph

Search for Another Location

Airport or City:

Trip Planner

Search our weather history database for the weather conditions in past years. The results will help you decide how hot, cold, wet, or windy it might be!

Date:

Astronomy

Jan. 02, 2014 Rise Set
Actual Time 8:27 AM CST 5:06 PM CST
Civil Twilight 7:52 AM CST 5:41 PM CST
Nautical Twilight 7:14 AM CST 6:19 PM CST
Astronomical Twilight 6:37 AM CST 6:56 PM CST
Moon 9:03 AM CST (1/2) 7:14 PM CST (1/2)
Length of Visible Light 9h 48m
Length of Day
8h 38m
Waxing Crescent, 3% of the Moon is Illuminated
Jan 2
Waxing Crescent
Jan 7
First Quarter
Jan 15
Full
Jan 23
Last Quarter
Jan 30
New

Hourly Weather History & Observations

Time (CST) Temp. Windchill Dew Point Humidity Pressure Visibility Wind Dir Wind Speed Gust Speed Precip Events Conditions
12:52 AM -8.0 °F - -13.0 °F 79% 30.51 in 10.0 mi Calm Calm - N/A   Overcast
1:52 AM -7.1 °F - -13.0 °F 75% 30.51 in 10.0 mi Calm Calm - N/A   Overcast
2:52 AM -9.9 °F - -16.1 °F 74% 30.53 in 10.0 mi Calm Calm - N/A   Mostly Cloudy
3:52 AM -15.0 °F -29.3 °F -18.9 °F 82% 30.53 in 10.0 mi ENE 5.8 mph - N/A   Scattered Clouds
4:52 AM -15.0 °F -25.0 °F -20.0 °F 78% 30.54 in 10.0 mi East 3.5 mph - N/A   Clear
5:52 AM -17.0 °F - -20.9 °F 82% 30.56 in 10.0 mi Calm Calm - N/A   Clear
6:52 AM -20.9 °F -34.3 °F -25.1 °F 81% 30.56 in 10.0 mi ENE 4.6 mph - N/A   Clear
7:52 AM -22.0 °F -37.7 °F -25.1 °F 86% 30.56 in 10.0 mi NE 5.8 mph - N/A   Clear
8:52 AM -22.0 °F -39.4 °F -26.0 °F 82% 30.56 in 10.0 mi ENE 6.9 mph - N/A   Clear
9:52 AM -20.9 °F -36.4 °F -25.1 °F 81% 30.56 in 10.0 mi ENE 5.8 mph - N/A   Clear
10:52 AM -16.1 °F -30.6 °F -22.0 °F 74% 30.55 in 10.0 mi ENE 5.8 mph - N/A   Clear
11:52 AM -11.0 °F - -17.0 °F 75% 30.52 in 5.0 mi Calm Calm - N/A   Haze
12:52 PM -7.1 °F - -11.9 °F 79% 30.48 in 10.0 mi Calm Calm - N/A   Clear
1:52 PM -2.9 °F -20.8 °F -9.0 °F 75% 30.43 in 10.0 mi SE 11.5 mph - N/A   Clear
2:52 PM -2.0 °F -19.6 °F -9.0 °F 72% 30.39 in 10.0 mi SSE 11.5 mph - N/A   Clear
3:52 PM 1.0 °F -14.9 °F -7.1 °F 69% 30.37 in 10.0 mi SE 10.4 mph - N/A   Scattered Clouds
4:52 PM 1.0 °F -17.3 °F -6.0 °F 72% 30.33 in 10.0 mi SSE 13.8 mph - N/A   Overcast
5:36 PM 1.9 °F -13.8 °F -5.1 °F 72% 30.15 in 10.0 mi South 10.4 mph - N/A   Overcast
5:52 PM 1.9 °F -15.5 °F -5.1 °F 72% 30.29 in 10.0 mi SSE 12.7 mph - N/A   Overcast
6:07 PM 1.9 °F -16.2 °F -5.1 °F 72% 30.12 in 10.0 mi SSE 13.8 mph - N/A   Overcast
6:37 PM 3.0 °F -14.8 °F -2.9 °F 76% 30.08 in 1.8 mi South 13.8 mph - 0.00 in Snow Light Snow
6:52 PM 3.0 °F -14.1 °F -2.0 °F 80% 30.24 in 1.0 mi South 12.7 mph - 0.00 in Snow Light Snow
7:52 PM 3.9 °F -15.0 °F -0.0 °F 84% 30.21 in 1.0 mi South 16.1 mph - 0.00 in Snow Light Snow
8:12 PM 3.9 °F -13.7 °F -0.0 °F 84% 30.03 in 1.2 mi South 13.8 mph - 0.00 in Snow Light Snow
8:39 PM 5.0 °F -10.8 °F -0.0 °F 80% 30.00 in 1.0 mi SSE 11.5 mph - 0.00 in Snow Light Snow
8:52 PM 5.0 °F -11.6 °F 1.0 °F 84% 30.15 in 1.0 mi SSE 12.7 mph - 0.00 in Snow Light Snow
9:10 PM 5.0 °F -11.6 °F 1.0 °F 84% 29.98 in 1.2 mi SSE 12.7 mph - 0.00 in Snow Light Snow
9:31 PM 6.1 °F -11.6 °F 1.9 °F 83% 29.95 in 2.0 mi SSE 15.0 mph - 0.00 in Snow Light Snow
9:45 PM 6.1 °F -9.5 °F 1.9 °F 83% 29.95 in 1.5 mi SSE 11.5 mph - 0.00 in Snow Light Snow
9:52 PM 6.1 °F -7.8 °F 1.9 °F 83% 30.10 in 1.5 mi SSE 9.2 mph - 0.00 in Snow Light Snow
10:10 PM 7.0 °F -4.5 °F 3.0 °F 84% 29.93 in 2.0 mi SE 6.9 mph - 0.00 in Snow Light Snow
10:21 PM 8.1 °F -6.2 °F 3.0 °F 80% 29.91 in 3.0 mi SSE 10.4 mph - 0.00 in Snow Light Snow
10:42 PM 8.1 °F -7.7 °F 3.9 °F 83% 29.90 in 5.0 mi SSE 12.7 mph - 0.00 in   Overcast
10:52 PM 9.0 °F -5.1 °F 3.9 °F 80% 30.04 in 6.0 mi SE 10.4 mph - 0.00 in   Haze
11:52 PM 7.0 °F -9.1 °F 3.0 °F 84% 29.99 in 6.0 mi SSE 12.7 mph - 0.00 in Snow Light Snow